Content
SEND FEEDBACK

Daily
Averages
Monthly
Summary
United States of America

EVERETTS, NORTH CAROLINA


Home > North America > United States > North Carolina
Elevation: 5 feet     Latitude: 35 51N     Longitude: 077 02W

WEATHER
 
SELECT A DAY
Number of Records: 360,100;   Date Range: 7/16/98 - 12/19/14
 
SHARE

PRINT THIS DATA

[ ← Previous Day ]
WEATHER ALMANAC - FEBRUARY 13, 2013
[ Next Day → ]
[ °C ]   °F
Weather ElementAverageHighLow
Temperature50.1 °F53.6 °F (7:15 pm)46.4 °F (6:55 am)
Dewpoint44.4 °F47.7 °F (7:15 pm)41 °F (6:15 am)
Humidity80.6 %82 % (2:15 am)67 % (12:55 am)
Barometer29.76 in29.97 in (12:35 am)29.60 in (4:35 pm)
Wind Speed5.6 mph16.1 mph (7:55 pm)
Wind Gust24.2 mph (7:15 pm)
Weather ElementAverage
Visibility6.9 mi
Wind DirectionSSE (148 °)

Weather ElementTotal
Precipitation0.82 in
Heating Degree Days15 (Base 65)
Averaged from 71 records on February 13, 2013
WEATHER CONDITIONS BREAKOUT
WIND DIRECTION BREAKOUT
WEATHER BY HOUR - FEBRUARY 13, 2013
[ °C ]   °F
Local TimeTemperatureDewpointHumidityBarometerVisibilityWind DirectionWind SpeedGust SpeedPrecipitationEventsConditions
12:35 AM50.2 °F43.7 °F78 %29.97 in10.0 miCalmOvercast
12:55 AM52.7 °F41.9 °F67 %29.96 in10.0 miSouth (170°)3.5 mphRainLight Rain
1:15 AM52.7 °F43.5 °F71 %29.96 in10.0 miSouth (190°)3.5 mphRainLight Rain
1:35 AM50.2 °F43.2 °F77 %29.96 in10.0 miSouth (170°)3.5 mph0.01 inRainRain
1:55 AM50.2 °F44.6 °F81 %29.95 in10.0 miSouth (170°)3.5 mph0.02 inRainLight Rain
2:15 AM48.2 °F42.8 °F82 %29.91 in10.0 miSE (140°)5.8 mph0.01 inRainLight Rain
2:35 AM47.8 °F42.3 °F81 %29.89 in10.0 miSSE (150°)3.5 mph0.02 inRainLight Rain
2:55 AM47.7 °F42.1 °F81 %29.89 in10.0 miCalm0.04 inRainLight Rain
3:15 AM47.7 °F42.1 °F81 %29.88 in10.0 miCalm0.01 inRainLight Rain
3:35 AM47.5 °F41.9 °F81 %29.86 in10.0 miCalm0.01 inScattered Clouds
3:55 AM47.7 °F42.1 °F81 %29.87 in10.0 miCalm0.01 inScattered Clouds
4:15 AM47.7 °F42.1 °F81 %29.89 in4.0 miCalm0.04 inRainRain
4:35 AM47.7 °F42.1 °F81 %29.86 in7.0 miCalm0.08 inRainLight Rain
4:55 AM47.7 °F42.1 °F81 %29.84 in10.0 miESE (120°)3.5 mph0.09 inRainLight Rain
5:15 AM47.3 °F41.7 °F81 %29.83 in10.0 miCalm0.01 inRainLight Rain
5:35 AM47.5 °F41.9 °F81 %29.83 in7.0 miNNE (30°)3.5 mph0.02 inRainRain
5:55 AM46.8 °F41.2 °F81 %29.81 in5.0 miESE (120°)4.6 mph0.06 inRainRain
6:15 AM46.6 °F41.0 °F81 %29.81 in7.0 miESE (110°)3.5 mphDrizzle
6:35 AM46.8 °F41.2 °F81 %29.82 in5.0 miCalm0.02 inRainRain
6:55 AM46.4 °F41.0 °F81 %29.84 in3.0 miCalm0.07 inOvercast
7:15 AM46.4 °F41.0 °F81 %29.86 in5.0 miCalm0.03 inRainRain
7:35 AM46.4 °F41.0 °F81 %29.84 in2.5 miCalm0.05 inRainRain
7:55 AM46.4 °F41.0 °F81 %29.84 in2.5 miCalm0.06 inDrizzle
8:15 AM46.6 °F41.0 °F81 %29.85 in4.0 miNNE (20°)3.5 mph0.02 inRainLight Rain
8:35 AM46.8 °F41.2 °F81 %29.85 in3.0 miNorth (360°)4.6 mph0.03 inDrizzle
8:55 AM46.8 °F41.2 °F81 %29.83 in3.0 miNorth (360°)4.6 mph0.04 inDrizzle
9:15 AM47.5 °F41.9 °F81 %29.83 in4.0 miNNE (20°)4.6 mph0.01 inLight Drizzle
9:35 AM47.7 °F42.1 °F81 %29.82 in5.0 miNorth (10°)4.6 mph0.01 inLight Drizzle
9:55 AM47.7 °F42.1 °F81 %29.80 in4.0 miNNE (30°)5.8 mph0.02 inLight Drizzle
10:15 AM47.7 °F42.1 °F81 %29.78 in5.0 miNNE (30°)5.8 mphLight Drizzle
10:35 AM48.7 °F43.2 °F81 %29.78 in5.0 miNE (50°)3.5 mphHaze
10:55 AM49.6 °F44.1 °F81 %29.76 in3.0 miNNE (30°)5.8 mphHaze
11:15 AM50.0 °F44.4 °F81 %29.76 in4.0 miNorth (360°)4.6 mphHaze
11:35 AM50.2 °F44.6 °F81 %29.73 in4.0 miENE (70°)6.9 mphHaze
11:55 AM50.2 °F44.6 °F81 %29.71 in5.0 miENE (70°)3.5 mphHaze
12:15 PM50.2 °F44.6 °F81 %29.70 in10.0 miEast (90°)6.9 mphOvercast
12:35 PM50.2 °F44.6 °F81 %29.74 in10.0 miNW (320°)5.8 mphOvercast
12:55 PM50.2 °F44.6 °F81 %29.69 in5.0 miESE (110°)4.6 mphHaze
1:15 PM50.2 °F44.6 °F81 %29.68 in4.0 miESE (110°)6.9 mphHaze
1:35 PM50.2 °F44.6 °F81 %29.69 in2.5 miNorth (10°)4.6 mphHaze
1:55 PM50.2 °F44.6 °F81 %29.65 in2.5 miESE (110°)8.1 mphHaze
2:15 PM50.2 °F44.6 °F81 %29.65 in2.0 miEast (100°)6.9 mphHaze
2:35 PM50.2 °F44.6 °F81 %29.63 in1.8 miSE (140°)8.1 mphHaze
2:55 PM52.2 °F46.6 °F81 %29.63 in1.8 miSE (130°)5.8 mphRainLight Rain
3:15 PM52.7 °F47.3 °F82 %29.67 in2.5 miWest (270°)4.6 mphLight Drizzle
3:35 PM52.7 °F47.3 °F82 %29.63 in5.0 miSSE (150°)9.2 mphLight Drizzle
3:55 PM52.7 °F47.3 °F82 %29.62 in2.0 miSE (140°)3.5 mphRainLight Rain
4:15 PM52.7 °F47.3 °F82 %29.64 in3.0 miWest (270°)3.5 mphRainLight Rain
4:35 PM52.7 °F47.3 °F82 %29.60 in3.0 miSSE (150°)6.9 mphRainLight Rain
4:55 PM52.7 °F47.3 °F82 %29.66 in2.5 miWSW (240°)6.9 mph0.01 inRainLight Rain
5:15 PM52.7 °F47.3 °F82 %29.64 in5.0 miSW (230°)8.1 mphRainLight Rain
5:35 PM52.7 °F47.3 °F82 %29.63 in7.0 miSW (230°)6.9 mph0.01 inRainLight Rain
5:55 PM52.7 °F47.3 °F82 %29.64 in10.0 miWSW (240°)10.4 mph0.01 inRainLight Rain
6:15 PM52.7 °F47.3 °F82 %29.65 in10.0 miWSW (250°)10.4 mphOvercast
6:35 PM52.9 °F47.3 °F81 %29.62 in10.0 miWSW (250°)10.4 mphMostly Cloudy
6:55 PM53.1 °F47.3 °F81 %29.64 in10.0 miSW (230°)12.7 mph17.3 mphMostly Cloudy
7:15 PM53.6 °F47.7 °F80 %29.68 in10.0 miWSW (240°)11.5 mph24.2 mphMostly Cloudy
7:35 PM52.9 °F47.3 °F81 %29.68 in10.0 miWSW (250°)13.8 mph18.4 mphOvercast
7:55 PM52.7 °F47.3 °F82 %29.69 in10.0 miWSW (250°)16.1 mph21.9 mphOvercast
8:15 PM52.7 °F46.9 °F81 %29.68 in10.0 miWSW (250°)10.4 mph18.4 mphMostly Cloudy
8:35 PM52.7 °F47.3 °F82 %29.69 in10.0 miWest (260°)10.4 mphMostly Cloudy
8:55 PM52.7 °F46.9 °F81 %29.71 in10.0 miWest (270°)10.4 mph19.6 mphOvercast
9:15 PM52.7 °F46.6 °F80 %29.71 in10.0 miWest (260°)13.8 mph21.9 mphOvercast
9:35 PM52.7 °F46.6 °F80 %29.72 in10.0 miWest (270°)10.4 mph17.3 mphOvercast
9:55 PM52.7 °F46.6 °F80 %29.75 in10.0 miWest (270°)9.2 mphOvercast
10:15 PM52.7 °F46.4 °F79 %29.75 in10.0 miWest (280°)8.1 mphOvercast
10:35 PM52.7 °F46.4 °F79 %29.74 in10.0 miWest (270°)8.1 mph16.1 mphMostly Cloudy
10:55 PM52.7 °F46.6 °F80 %29.75 in10.0 miWest (270°)6.9 mphScattered Clouds
11:15 PM52.7 °F46.9 °F81 %29.77 in10.0 miWest (270°)6.9 mphScattered Clouds
11:35 PM51.4 °F45.7 °F81 %29.76 in10.0 miWest (280°)9.2 mphScattered Clouds
11:55 PM50.4 °F44.8 °F81 %29.77 in10.0 miWest (270°)8.1 mphScattered Clouds
Hourly data recorded from KOCW, located miles away from Everetts, North Carolina







STORIES FROM OUR PARTNERS